TimeCST,TemperatureF,Dew PointF,Humidity,Sea Level PressureIn,VisibilityMPH,Wind Direction,Wind SpeedMPH,Gust SpeedMPH,PrecipitationIn,Events,Conditions,WindDirDegrees,DateUTC
12:15 AM,12.0,1.4,62,30.55,10.0,East,5.8,-,N/A,,Clear,100,2013-12-08 06:15:00
12:35 AM,12.0,1.4,62,30.52,10.0,East,6.9,-,N/A,,Clear,100,2013-12-08 06:35:00
12:55 AM,12.0,1.0,61,30.50,10.0,East,8.1,-,N/A,,Clear,90,2013-12-08 06:55:00
1:15 AM,12.0,1.0,61,30.48,10.0,East,8.1,-,N/A,,Clear,80,2013-12-08 07:15:00
1:35 AM,12.0,1.0,61,30.48,10.0,East,6.9,-,N/A,,Clear,100,2013-12-08 07:35:00
1:55 AM,12.0,0.9,61,30.48,10.0,East,5.8,-,N/A,,Clear,90,2013-12-08 07:55:00
2:15 AM,12.0,0.7,60,30.46,10.0,East,8.1,-,N/A,,Clear,90,2013-12-08 08:15:00
2:35 AM,12.2,0.9,60,30.45,10.0,East,9.2,-,N/A,,Clear,90,2013-12-08 08:35:00
2:55 AM,12.2,0.9,60,30.44,10.0,East,10.4,-,N/A,,Clear,80,2013-12-08 08:55:00
3:15 AM,13.5,2.3,61,30.43,10.0,East,8.1,-,N/A,,Clear,90,2013-12-08 09:15:00
3:35 AM,14.5,3.6,62,30.42,10.0,East,9.2,-,N/A,,Clear,90,2013-12-08 09:35:00
3:55 AM,14.5,3.2,61,30.42,10.0,East,5.8,-,N/A,,Clear,90,2013-12-08 09:55:00
4:15 AM,14.5,3.2,61,30.40,10.0,East,9.2,-,N/A,,Clear,90,2013-12-08 10:15:00
4:35 AM,14.5,3.0,60,30.39,10.0,East,6.9,-,N/A,,Clear,100,2013-12-08 10:35:00
4:55 AM,14.5,2.3,58,30.38,10.0,ESE,8.1,-,N/A,,Clear,110,2013-12-08 10:55:00
5:15 AM,14.5,2.3,58,30.38,10.0,ESE,9.2,-,N/A,,Clear,110,2013-12-08 11:15:00
5:35 AM,14.5,3.0,60,30.37,10.0,East,9.2,-,N/A,,Clear,100,2013-12-08 11:35:00
5:55 AM,14.5,3.0,60,30.36,10.0,East,6.9,-,N/A,,Clear,90,2013-12-08 11:55:00
6:15 AM,14.5,3.0,60,30.35,10.0,East,9.2,-,N/A,,Clear,100,2013-12-08 12:15:00
6:35 AM,14.5,2.7,59,30.35,10.0,East,8.1,-,N/A,,Clear,100,2013-12-08 12:35:00
6:55 AM,14.5,2.3,58,30.34,10.0,ESE,8.1,-,N/A,,Clear,110,2013-12-08 12:55:00
7:15 AM,14.5,2.3,58,30.33,10.0,ESE,9.2,-,N/A,,Clear,110,2013-12-08 13:15:00
7:35 AM,14.5,2.3,58,30.32,10.0,ESE,10.4,-,N/A,,Clear,110,2013-12-08 13:35:00
7:55 AM,14.5,1.9,57,30.32,10.0,ESE,13.8,-,N/A,,Clear,120,2013-12-08 13:55:00
8:15 AM,14.5,2.3,58,30.29,10.0,ESE,12.7,16.1,N/A,,Clear,110,2013-12-08 14:15:00
8:35 AM,14.9,2.8,59,30.28,10.0,East,11.5,-,N/A,,Clear,100,2013-12-08 14:35:00
8:55 AM,15.8,3.9,60,30.28,10.0,ESE,11.5,18.4,N/A,,Scattered Clouds,110,2013-12-08 14:55:00
9:15 AM,16.3,5.5,63,30.28,7.0,ESE,15.0,18.4,N/A,,Mostly Cloudy,110,2013-12-08 15:15:00
9:35 AM,17.1,7.5,66,30.27,4.0,ESE,12.7,17.3,N/A,,Haze,110,2013-12-08 15:35:00
9:55 AM,17.1,9.3,72,30.26,2.5,East,13.8,19.6,N/A,Snow,Light Snow,100,2013-12-08 15:55:00
10:15 AM,17.1,10.6,76,30.26,1.5,ESE,12.7,-,N/A,Snow,Light Snow,110,2013-12-08 16:15:00
10:35 AM,17.1,11.1,77,30.25,2.0,ESE,12.7,18.4,N/A,Snow,Light Snow,120,2013-12-08 16:35:00
10:55 AM,17.4,11.3,77,30.23,2.5,ESE,11.5,-,N/A,Snow,Light Snow,110,2013-12-08 16:55:00
11:15 AM,18.0,12.2,78,30.22,1.2,ESE,13.8,19.6,N/A,Snow,Light Snow,110,2013-12-08 17:15:00
11:35 AM,19.4,14.0,80,30.19,1.0,ESE,12.7,-,N/A,Snow,Light Snow,110,2013-12-08 17:35:00
11:55 AM,19.4,14.2,80,30.18,1.5,ESE,11.5,-,N/A,Snow,Light Snow,110,2013-12-08 17:55:00
12:15 PM,19.4,14.7,82,30.15,1.2,ESE,11.5,16.1,N/A,Snow,Light Snow,120,2013-12-08 18:15:00
12:35 PM,19.4,14.7,82,30.13,1.0,ESE,11.5,-,N/A,Snow,Light Snow,110,2013-12-08 18:35:00
12:55 PM,19.6,14.9,82,30.12,1.0,ESE,10.4,-,N/A,Snow,Light Snow,110,2013-12-08 18:55:00
1:15 PM,20.1,15.4,82,30.10,1.2,ESE,11.5,-,N/A,Snow,Light Snow,110,2013-12-08 19:15:00
1:35 PM,20.1,15.6,83,30.09,1.0,East,9.2,-,N/A,Snow,Light Snow,90,2013-12-08 19:35:00
1:55 PM,19.4,15.3,84,30.08,1.0,ESE,11.5,-,N/A,Snow,Light Snow,110,2013-12-08 19:55:00
2:15 PM,19.9,15.4,83,30.07,0.8,ESE,10.4,-,N/A,Snow,Snow,110,2013-12-08 20:15:00
2:35 PM,19.9,15.6,83,30.07,1.0,ESE,11.5,-,N/A,Snow,Light Snow,110,2013-12-08 20:35:00
2:55 PM,20.3,16.0,83,30.05,0.5,East,6.9,-,N/A,Snow,Snow,100,2013-12-08 20:55:00
3:15 PM,20.1,16.3,85,30.04,0.8,ESE,10.4,-,N/A,Snow,Light Snow,110,2013-12-08 21:15:00
3:35 PM,20.3,16.5,85,30.04,1.0,ESE,9.2,-,N/A,Snow,Light Snow,110,2013-12-08 21:35:00
3:55 PM,20.3,16.3,85,30.04,1.2,ESE,10.4,-,N/A,Snow,Light Snow,110,2013-12-08 21:55:00
4:15 PM,20.1,16.3,85,30.04,1.5,ESE,5.8,-,N/A,Snow,Light Snow,110,2013-12-08 22:15:00
4:35 PM,19.9,16.3,86,30.03,1.8,East,4.6,-,N/A,Snow,Light Snow,100,2013-12-08 22:35:00
4:55 PM,19.8,16.2,86,30.03,2.0,East,8.1,-,N/A,Snow,Light Snow,100,2013-12-08 22:55:00
5:15 PM,19.4,16.2,87,30.03,1.8,NE,4.6,-,N/A,Snow,Light Snow,50,2013-12-08 23:15:00
5:35 PM,19.4,16.3,88,30.02,2.0,East,5.8,-,N/A,Snow,Light Snow,90,2013-12-08 23:35:00
5:55 PM,19.4,16.3,88,30.02,2.0,ENE,4.6,-,N/A,Snow,Light Snow,70,2013-12-08 23:55:00
6:15 PM,19.4,16.3,88,30.01,2.0,ENE,5.8,-,N/A,Snow,Light Snow,70,2013-12-09 00:15:00
6:35 PM,19.4,16.2,87,30.01,3.0,ENE,6.9,-,N/A,Snow,Light Snow,70,2013-12-09 00:35:00
6:55 PM,19.4,16.2,87,30.02,5.0,ENE,4.6,-,N/A,Snow,Light Snow,70,2013-12-09 00:55:00
7:15 PM,19.4,15.8,86,30.02,7.0,ENE,3.5,-,N/A,Snow,Light Snow,70,2013-12-09 01:15:00
7:35 PM,19.4,15.8,86,30.03,10.0,NE,3.5,-,N/A,Snow,Light Snow,50,2013-12-09 01:35:00
7:55 PM,19.0,15.1,85,30.02,5.0,NE,3.5,-,N/A,Snow,Light Snow,40,2013-12-09 01:55:00
8:15 PM,18.3,14.9,86,30.02,3.0,NE,4.6,-,N/A,Snow,Light Snow,40,2013-12-09 02:15:00
8:35 PM,18.3,14.9,86,30.03,2.0,Calm,Calm,-,N/A,Snow,Light Snow,0,2013-12-09 02:35:00
8:55 PM,17.6,14.4,87,30.01,3.0,North,3.5,-,N/A,Snow,Light Snow,10,2013-12-09 02:55:00
9:15 PM,17.6,14.5,88,30.00,2.5,Calm,Calm,-,N/A,Snow,Light Snow,0,2013-12-09 03:15:00
9:35 PM,17.6,14.5,88,30.01,2.0,Calm,Calm,-,N/A,Snow,Light Snow,0,2013-12-09 03:35:00
9:55 PM,17.6,14.5,88,30.01,1.8,NW,3.5,-,N/A,Snow,Light Snow,310,2013-12-09 03:55:00
10:15 PM,17.4,14.5,88,30.00,1.2,Calm,Calm,-,N/A,Snow,Light Snow,0,2013-12-09 04:15:00
10:35 PM,17.1,14.0,88,30.00,2.5,Calm,Calm,-,N/A,Snow,Light Snow,0,2013-12-09 04:35:00
10:55 PM,17.1,14.0,88,30.00,3.0,NW,3.5,-,N/A,Snow,Light Snow,310,2013-12-09 04:55:00
11:15 PM,17.1,14.0,88,29.99,2.0,Calm,Calm,-,N/A,Snow,Light Snow,0,2013-12-09 05:15:00
11:35 PM,17.1,14.0,88,30.00,2.5,WNW,3.5,-,N/A,Snow,Light Snow,290,2013-12-09 05:35:00
11:55 PM,17.1,14.0,88,30.00,3.0,WNW,3.5,-,N/A,Snow,Light Snow,290,2013-12-09 05:55:00